TimeCDT,TemperatureF,Dew PointF,Humidity,Sea Level PressureIn,VisibilityMPH,Wind Direction,Wind SpeedMPH,Gust SpeedMPH,PrecipitationIn,Events,Conditions,WindDirDegrees,DateUTC
12:15 AM,55.4,19.4,25,29.34,10.0,South,16.1,27.6,N/A,,Clear,190,2014-03-18 05:15:00
12:35 AM,55.4,19.4,25,29.34,10.0,South,17.3,21.9,N/A,,Clear,190,2014-03-18 05:35:00
12:55 AM,55.4,17.6,23,29.34,10.0,South,16.1,21.9,N/A,,Clear,190,2014-03-18 05:55:00
1:15 AM,55.4,17.6,23,29.33,10.0,South,18.4,21.9,N/A,,Clear,190,2014-03-18 06:15:00
1:35 AM,55.4,17.6,23,29.33,10.0,SSW,11.5,20.7,N/A,,Clear,210,2014-03-18 06:35:00
1:55 AM,55.4,17.6,23,29.33,10.0,SSW,13.8,-,N/A,,Clear,210,2014-03-18 06:55:00
2:15 AM,55.4,15.8,21,29.31,10.0,SSW,15.0,20.7,N/A,,Clear,210,2014-03-18 07:15:00
2:35 AM,55.4,14.0,20,29.31,10.0,SSW,13.8,-,N/A,,Clear,210,2014-03-18 07:35:00
2:55 AM,51.8,14.0,22,29.31,10.0,SW,9.2,-,N/A,,Clear,220,2014-03-18 07:55:00
3:15 AM,50.0,14.0,24,29.31,10.0,SSW,11.5,-,N/A,,Clear,210,2014-03-18 08:15:00
3:35 AM,48.2,14.0,25,29.30,10.0,SW,9.2,-,N/A,,Clear,230,2014-03-18 08:35:00
3:55 AM,51.8,14.0,22,29.29,10.0,SW,8.1,-,N/A,,Clear,220,2014-03-18 08:55:00
4:15 AM,53.6,14.0,21,29.30,10.0,West,11.5,-,N/A,,Clear,260,2014-03-18 09:15:00
4:35 AM,51.8,14.0,22,29.35,10.0,WNW,15.0,21.9,N/A,,Clear,290,2014-03-18 09:35:00
4:55 AM,53.6,19.4,26,29.36,10.0,NNW,17.3,21.9,N/A,,Clear,330,2014-03-18 09:55:00
5:15 AM,51.8,24.8,35,29.38,10.0,NNW,15.0,23.0,N/A,,Clear,330,2014-03-18 10:15:00
5:35 AM,51.8,24.8,35,29.39,10.0,NNW,17.3,23.0,N/A,,Clear,330,2014-03-18 10:35:00
5:55 AM,50.0,24.8,37,29.41,10.0,NNW,10.4,17.3,N/A,,Clear,330,2014-03-18 10:55:00
6:15 AM,48.2,23.0,37,29.42,10.0,NW,11.5,16.1,N/A,,Clear,320,2014-03-18 11:15:00
6:35 AM,48.2,23.0,37,29.43,10.0,NW,11.5,17.3,N/A,,Clear,320,2014-03-18 11:35:00
6:55 AM,46.4,21.2,37,29.43,10.0,NW,12.7,-,N/A,,Clear,320,2014-03-18 11:55:00
7:15 AM,46.4,19.4,34,29.44,10.0,NW,11.5,-,N/A,,Clear,320,2014-03-18 12:15:00
7:35 AM,46.4,19.4,34,29.44,10.0,NW,9.2,-,N/A,,Clear,320,2014-03-18 12:35:00
7:55 AM,44.6,19.4,37,29.46,10.0,WNW,8.1,-,N/A,,Clear,300,2014-03-18 12:55:00
8:15 AM,42.8,19.4,39,29.47,10.0,West,6.9,-,N/A,,Clear,270,2014-03-18 13:15:00
8:35 AM,44.6,19.4,37,29.49,10.0,WSW,8.1,-,N/A,,Clear,250,2014-03-18 13:35:00
8:55 AM,46.4,19.4,34,29.49,10.0,West,6.9,-,N/A,,Clear,260,2014-03-18 13:55:00
9:15 AM,46.4,19.4,34,29.50,10.0,West,10.4,-,N/A,,Clear,270,2014-03-18 14:15:00
9:35 AM,50.0,19.4,30,29.52,10.0,WNW,11.5,-,N/A,,Clear,290,2014-03-18 14:35:00
9:55 AM,51.8,17.6,26,29.53,10.0,NW,13.8,17.3,N/A,,Clear,320,2014-03-18 14:55:00
10:15 AM,51.8,17.6,26,29.54,10.0,NNW,13.8,25.3,N/A,,Clear,330,2014-03-18 15:15:00
10:35 AM,51.8,15.8,24,29.57,10.0,NW,17.3,24.2,N/A,,Clear,320,2014-03-18 15:35:00
10:55 AM,53.6,17.6,24,29.57,10.0,NNW,13.8,20.7,N/A,,Clear,330,2014-03-18 15:55:00
11:15 AM,55.4,15.8,21,29.58,10.0,NNW,20.7,29.9,N/A,,Clear,340,2014-03-18 16:15:00
11:35 AM,55.4,15.8,21,29.60,10.0,NNW,12.7,20.7,N/A,,Clear,340,2014-03-18 16:35:00
11:55 AM,57.2,14.0,18,29.60,10.0,NW,19.6,25.3,N/A,,Clear,320,2014-03-18 16:55:00
12:15 PM,59.0,14.0,17,29.60,10.0,NNW,18.4,25.3,N/A,,Clear,330,2014-03-18 17:15:00
12:35 PM,59.0,14.0,17,29.61,10.0,NW,15.0,24.2,N/A,,Clear,320,2014-03-18 17:35:00
12:55 PM,60.8,14.0,16,29.62,10.0,NNW,13.8,24.2,N/A,,Clear,340,2014-03-18 17:55:00
1:15 PM,60.8,14.0,16,29.62,10.0,NNW,16.1,28.8,N/A,,Clear,330,2014-03-18 18:15:00
1:35 PM,62.6,14.0,15,29.62,10.0,NNW,18.4,27.6,N/A,,Clear,330,2014-03-18 18:35:00
1:55 PM,62.6,14.0,15,29.62,10.0,NNW,13.8,26.5,N/A,,Clear,330,2014-03-18 18:55:00
2:15 PM,60.8,14.0,16,29.63,10.0,NNW,20.7,28.8,N/A,,Clear,340,2014-03-18 19:15:00
2:35 PM,60.8,14.0,16,29.65,10.0,NW,24.2,31.1,N/A,,Clear,320,2014-03-18 19:35:00
2:55 PM,62.6,14.0,15,29.66,10.0,NW,29.9,36.8,N/A,,Clear,320,2014-03-18 19:55:00
3:15 PM,62.6,12.2,14,29.67,10.0,NW,24.2,29.9,N/A,,Clear,320,2014-03-18 20:15:00
3:35 PM,60.8,17.6,19,29.67,2.5,NW,34.5,44.9,N/A,,Haze,320,2014-03-18 20:35:00
3:55 PM,59.0,19.4,22,29.69,1.8,NW,34.5,47.2,N/A,,Haze,310,2014-03-18 20:55:00
4:15 PM,57.2,23.0,27,29.71,1.0,NW,40.3,47.2,N/A,,Haze,320,2014-03-18 21:15:00
4:35 PM,57.2,21.2,25,29.73,2.0,NW,34.5,44.9,N/A,,Haze,320,2014-03-18 21:35:00
4:55 PM,57.2,19.4,23,29.74,2.0,NW,27.6,42.6,N/A,,Haze,320,2014-03-18 21:55:00
5:15 PM,55.4,19.4,25,29.75,2.0,NW,38.0,48.3,N/A,,Haze,320,2014-03-18 22:15:00
5:35 PM,55.4,17.6,23,29.77,1.8,NNW,36.8,50.6,N/A,,Haze,330,2014-03-18 22:35:00
5:55 PM,53.6,19.4,26,29.80,1.8,NW,29.9,44.9,N/A,,Haze,320,2014-03-18 22:55:00
6:15 PM,51.8,21.2,30,29.82,2.0,NW,32.2,44.9,N/A,,Haze,320,2014-03-18 23:15:00
6:35 PM,51.8,21.2,30,29.85,2.0,NNW,33.4,44.9,N/A,,Haze,330,2014-03-18 23:35:00
6:55 PM,48.2,23.0,37,29.87,2.5,NNW,33.4,43.7,N/A,,Haze,340,2014-03-18 23:55:00
7:15 PM,46.4,23.0,40,29.90,3.0,NNW,29.9,42.6,N/A,,Haze,330,2014-03-19 00:15:00
7:35 PM,46.4,23.0,40,29.92,4.0,NNW,31.1,40.3,N/A,,Haze,340,2014-03-19 00:35:00
7:55 PM,42.8,23.0,46,29.95,3.0,North,27.6,44.9,N/A,,Haze,350,2014-03-19 00:55:00
8:15 PM,42.8,24.8,49,29.97,4.0,NNW,25.3,40.3,N/A,,Haze,340,2014-03-19 01:15:00
8:35 PM,41.0,24.8,53,30.00,5.0,North,23.0,36.8,N/A,,Haze,350,2014-03-19 01:35:00
8:55 PM,41.0,24.8,53,30.00,7.0,North,23.0,31.1,N/A,,Scattered Clouds,360,2014-03-19 01:55:00
9:15 PM,41.0,24.8,53,30.01,7.0,North,19.6,29.9,N/A,,Clear,360,2014-03-19 02:15:00
9:35 PM,41.0,24.8,53,30.03,7.0,North,21.9,29.9,N/A,,Clear,360,2014-03-19 02:35:00
9:55 PM,41.0,24.8,53,30.05,7.0,North,13.8,28.8,N/A,,Clear,360,2014-03-19 02:55:00
10:15 PM,39.2,26.6,61,30.08,7.0,North,5.8,-,N/A,,Clear,360,2014-03-19 03:15:00
10:35 PM,37.4,26.6,65,30.08,7.0,NNW,13.8,20.7,N/A,,Clear,340,2014-03-19 03:35:00
10:55 PM,37.4,26.6,65,30.09,10.0,NNW,6.9,17.3,N/A,,Clear,340,2014-03-19 03:55:00
11:15 PM,37.4,26.6,65,30.09,10.0,North,8.1,-,N/A,,Clear,360,2014-03-19 04:15:00
11:35 PM,37.4,26.6,65,30.10,10.0,North,10.4,-,N/A,,Clear,350,2014-03-19 04:35:00
11:55 PM,35.6,24.8,65,30.10,10.0,NNW,8.1,-,N/A,,Clear,340,2014-03-19 04:55:00